Retour au catalogue

CZ-6A R/B

ActifPO
NORAD 57835·ROCKET BODY·🇨🇳 China

Lancé Sep 10, 2023 depuis Taiyuan Satellite Launch Center

Loading…

Prochains Passages (prochaines 24 heures)

TLE

FraisSource: Space-Track

Époque: Sep 14, 2026, 06:39 UTC

1 57835U 23139F   26257.27720522  .00000200  00000-0  56938-4 0  9992
2 57835  86.0009 198.9356 0061853  12.8140 347.4612 14.39048078158165

Suivez CZ-6A R/B en temps réel avec AllMySat

Download on the App Store